Weather History for Seretse Khama, Botswana

Change the Weather History Date:

Monday, January 27, 2014

  Actual Average Record
Temperature  
Mean Temperature 74 °F -  
Max Temperature 80 °F 86 °F 93 °F (2007)
Min Temperature 66 °F 65 °F 64 °F (2000)
Cooling Degree Days 9    
Growing Degree Days 24 (Base 50)    
Moisture  
Dew Point 63 °F    
Average Humidity 70    
Maximum Humidity 94    
Minimum Humidity 51    
Precipitation  
Precipitation 0.00 in - - ()
Sea Level Pressure  
Sea Level Pressure 30.02 in    
Wind  
Wind Speed 8 mph ()    
Max Wind Speed 18 mph    
Max Gust Speed 26 mph    
Visibility 6.1 miles    
Events Rain    
Averages and records for this station are not official NWS values.
T = Trace of Precipitation, MM = Missing Value Source: Averaged Metar Reports

Daily Weather History Graph

Daily Weather History Graph

Search for Another Location

Airport:

Trip Planner

Search our weather history database for the weather conditions in past years. The results will help you decide how hot, cold, wet, or windy it might be!

Date:

Astronomy

Jan. 27, 2014 Rise Set
Actual Time 5:49 AM CAT 7:07 PM CAT
Civil Twilight 5:25 AM CAT 7:32 PM CAT
Nautical Twilight 4:56 AM CAT 8:01 PM CAT
Astronomical Twilight 4:26 AM CAT 8:31 PM CAT
Moon 2:01 AM CAT (1/27) 3:46 PM CAT (1/27)
Length of Visible Light 14h 07m
Length of Day
13h 17m
Waning Crescent, 17% of the Moon is Illuminated
Jan 27
Waning Crescent
Jan 30
New
Feb 6
First Quarter
Feb 15
Full
Feb 22
Last Quarter

Hourly Weather History & Observations

Time (CAT) Temp. Heat Index Dew Point Humidity Pressure Visibility Wind Dir Wind Speed Gust Speed Precip Events Conditions
12:00 AM 75.2 °F - 62.6 °F 65% 30.04 in - ENE 6.9 mph - N/A   Clear
3:00 AM 71.6 °F - 62.6 °F 73% 29.98 in - East 6.9 mph - N/A   Clear
4:00 AM 69.8 °F - 62.6 °F 78% 29.98 in - SE 5.8 mph - N/A   Clear
5:00 AM 69.8 °F - 62.6 °F 78% 30.01 in - East 5.8 mph - N/A   Clear
6:00 AM 69.8 °F - 62.6 °F 78% 30.01 in 6.2 mi East 10.4 mph - N/A   Partly Cloudy
7:00 AM 71.6 °F - 62.6 °F 73% 30.04 in 6.2 mi East 12.7 mph - N/A   Mostly Cloudy
8:00 AM 73.4 °F - 60.8 °F 65% 30.06 in 6.2 mi East 13.8 mph - N/A   Mostly Cloudy
9:00 AM 75.2 °F - 60.8 °F 61% 30.06 in 6.2 mi ENE 16.1 mph - N/A   Mostly Cloudy
10:00 AM 77.0 °F - 59.0 °F 54% 30.06 in 6.2 mi ENE 16.1 mph - N/A   Mostly Cloudy
11:00 AM 80.6 °F 81.5 °F 60.8 °F 51% 30.06 in 6.2 mi NE 11.5 mph 26.5 mph N/A   Mostly Cloudy
12:00 PM 78.8 °F - 59.0 °F 51% 30.04 in 6.2 mi ENE 13.8 mph - N/A   Mostly Cloudy
1:00 PM 78.8 °F - 60.8 °F 54% 30.04 in 6.2 mi East 13.8 mph - N/A   Mostly Cloudy
2:00 PM 78.8 °F - 60.8 °F 54% 30.01 in 6.2 mi East 12.7 mph - N/A   Partly Cloudy
3:00 PM 80.6 °F 81.5 °F 60.8 °F 51% 29.98 in 6.2 mi ENE 6.9 mph - N/A   Partly Cloudy
4:00 PM 75.2 °F - 66.2 °F 73% 29.98 in 6.2 mi South 5.8 mph - N/A   Partly Cloudy
5:00 PM 69.8 °F - 66.2 °F 88% 29.83 in 4.3 mi East 18.4 mph - N/A Rain Light Rain
7:00 PM 71.6 °F - 66.2 °F 83% 29.98 in 6.2 mi Variable 2.3 mph - N/A   Scattered Clouds
8:00 PM 68.0 °F - 66.2 °F 94% 30.04 in 6.2 mi ESE 9.2 mph - N/A Rain Light Rain
10:00 PM 69.8 °F - 66.2 °F 88% 30.04 in 6.2 mi ESE 4.6 mph - N/A   Scattered Clouds
11:00 PM 66.2 °F - 64.4 °F 94% 30.06 in 6.2 mi ENE 9.2 mph - N/A   Mostly Cloudy